Regional Weather Roundup
Issued by NWS

Home | Current Version | Previous Version | Graphics & Text | Print | Product List | Glossary On
Versions: 1 2 3 4 5 6 7 8 9 10 11 12 13 14 15 16 17 18 19 20 21 22 23 24 25 26 27 28 29 30 31 32 33 34 35 36 37 38 39 40 41 42 43 44 45 46 47 48 49 50
000
ASUS43 KIND 220609
RWRIN

WEATHER ROUNDUP FOR INDIANA
NATIONAL WEATHER SERVICE INDIANAPOLIS IN
200 AM EDT MON SEP 22 2014

NOTE: "FAIR" INDICATES FEW OR NO CLOUDS BELOW 12,000 FEET WITH NO
SIGNIFICANT WEATHER AND/OR OBSTRUCTIONS TO VISIBILITY.

* - STATION DOES NOT REPORT WEATHER SUCH AS PRECIPITATION OR FOG.

+ - STATION NOT QUALITY CONTROLLED BY THE NATIONAL WEATHER SERVICE.
    USE DATA WITH CAUTION...ESPECIALLY DEWPOINT AND RELATIVE
    HUMIDITY OBSERVATIONS.

INZ001>003-010>013-019-020-220700-
NORTHWEST INDIANA

CITY           SKY/WX    TMP DP  RH WIND       PRES   REMARKS
GARY /AIRPORT/ MOCLDY    57  48  70 N10G18    30.15R
KNOX *+        PTCLDY    47  44  91 CALM      30.12R
LA PORTE +     PTCLDY    51  44  77 N7        30.13R
6HR MIN TEMP:  51; 6HR MAX TEMP:  56;

MICHIGAN CITY+ MOCLDY    54  41  62 N14G22    30.14R
MONTICELLO +   CLEAR     48  47  99 NW3       30.12R
RENSSELAER +   CLEAR     48  48 100 NW3       30.14R
VALPARAISO     CLEAR     52  46  80 N5        30.14R
6HR MIN TEMP:  52; 6HR MAX TEMP:  58; 6HR PCP: TRACE;


$$

LMZ046-743>745-220700-
SOUTHERN LAKE MICHIGAN

STATION/POSITION TIME  TEMP WIND        PRES
                       AIR  DIR/SP/G
                 (UTC) (F)  (DEG/KT/KT) (MB)
MICHIGAN CITY    0600   56  360/ 23/ 29   N/A

$$

INZ004-005-014>016-021>024-220700-
NORTH CENTRAL INDIANA

CITY           SKY/WX    TMP DP  RH WIND       PRES   REMARKS
GOSHEN         CLEAR    N/A N/A N/A N7        30.12R
LOGANSPORT +   CLEAR     46  45  93 CALM      30.13R
PERU/GRISSOM   CLEAR     50  50 100 N2        30.11R
6HR MIN TEMP:  50; 6HR MAX TEMP:  58;

ROCHESTER +    CLEAR     50  46  87 N3        30.12R
SOUTH BEND     MOCLDY    50  43  77 NE7       30.13R
6HR MIN TEMP:  51; 6HR MAX TEMP:  56;

WARSAW +       CLOUDY    46  43  87 N7        30.12R

$$

INZ006>009-017-018-025>027-220700-
NORTHEAST INDIANA

CITY           SKY/WX    TMP DP  RH WIND       PRES   REMARKS
ANGOLA *+      CLOUDY    46  36  66 NW6       30.10R
FORT WAYNE     PTCLDY    48  41  76 N15       30.11R
6HR MIN TEMP:  48; 6HR MAX TEMP:  57;

HUNTINGTON +   CLEAR     47  43  84 N9        30.11R
6HR MIN TEMP:  47; 6HR MAX TEMP:  56;


$$

INZ028-029-035-036-043>045-051>053-220700-
WEST CENTRAL INDIANA

CITY           SKY/WX    TMP DP  RH WIND       PRES   REMARKS
GREENCASTLE +  PTCLDY    54  50  87 CALM      30.13R
LAFAYETTE      PTCLDY    50  49  96 CALM      30.13R
6HR MIN TEMP:  49; 6HR MAX TEMP:  59;

TERRE HAUTE    CLEAR     54  50  86 N3        30.13R
6HR MIN TEMP:  54; 6HR MAX TEMP:  61;


$$

INZ030>032-037>040-046>048-054>057-064-065-220700-
CENTRAL INDIANA

CITY           SKY/WX    TMP DP  RH WIND       PRES   REMARKS
CP ATTERBURY + MOCLDY    54  50  87 N5        30.11S
FRANKFORT +    MOCLDY   N/A N/A N/A CALM      30.13R
INDIANAPOLIS   PTCLDY    55  48  77 N9        30.10S
6HR MIN TEMP:  54; 6HR MAX TEMP:  62;

-EAGLE CREEK   CLEAR     54  48  80 N7        30.11R
6HR MIN TEMP:  54; 6HR MAX TEMP:  62;

KOKOMO *+      CLEAR     50  45  81 NW6       30.12R
MARION +       CLEAR     49  45  86 NW3       30.11R
MT COMFORT *+  CLEAR     52  45  76 N12       30.11S
SHELBYVILLE    CLEAR     52  47  83 N6        30.10R
6HR MIN TEMP:  52; 6HR MAX TEMP:  64;

ZIONSVILLE +   PTCLDY    51  47  85 N7        30.12S
6HR MIN TEMP:  51; 6HR MAX TEMP:  58;


$$

INZ033-034-041-042-049-050-058-059-220700-
EAST CENTRAL INDIANA

CITY           SKY/WX    TMP DP  RH WIND       PRES   REMARKS
MUNCIE         CLEAR     48  45  89 NW6       30.10R
6HR MIN TEMP:  48; 6HR MAX TEMP:  57;


$$

INZ060-061-067>069-081>083-085>088-220700-
SOUTHWEST INDIANA

CITY           SKY/WX    TMP DP  RH WIND       PRES   REMARKS
EVANSVILLE     CLEAR     58  50  75 N5        30.12R
6HR MIN TEMP:  58; 6HR MAX TEMP:  71;

WASHINGTON +   CLEAR     52  51  96 NW6       30.11R
6HR MIN TEMP:  52; 6HR MAX TEMP:  65;


$$

INZ062-063-066-070>080-084-089>092-220700-
SOUTH CENTRAL AND SOUTHEAST INDIANA

CITY           SKY/WX    TMP DP  RH WIND       PRES   REMARKS
BLOOMINGTON    CLOUDY    56  51  84 N6        30.11R
6HR MIN TEMP:  51; 6HR MAX TEMP:  62;

SEYMOUR +      MOCLDY    59  50  72 N6        30.10R

$$



USA.gov is the U.S. government's official web portal to all federal, state and local government web resources and services.